"Time","Value","Approval","myLocation"
"2024-01-22 15:00",28.596,"Working","OW390"
"2024-01-22 16:00",28.601,"Working","OW390"
"2024-01-22 17:00",28.607,"Working","OW390"
"2024-01-22 18:00",28.615,"Working","OW390"
"2024-01-22 19:00",28.623,"Working","OW390"
"2024-01-22 20:00",28.63,"Working","OW390"
"2024-01-22 21:00",28.637,"Working","OW390"
"2024-01-22 22:00",28.642,"Working","OW390"
"2024-01-22 23:00",28.645,"Working","OW390"
"2024-01-23 00:00",28.647,"Working","OW390"
"2024-01-23 01:00",28.646,"Working","OW390"
"2024-01-23 02:00",28.645,"Working","OW390"
"2024-01-23 03:00",28.643,"Working","OW390"
"2024-01-23 04:00",28.642,"Working","OW390"
"2024-01-23 05:00",28.642,"Working","OW390"
"2024-01-23 06:00",28.644,"Working","OW390"
"2024-01-23 07:00",28.647,"Working","OW390"
"2024-01-23 08:00",28.651,"Working","OW390"
"2024-01-23 09:00",28.657,"Working","OW390"
"2024-01-23 10:00",28.662,"Working","OW390"
"2024-01-23 11:00",28.668,"Working","OW390"
"2024-01-23 12:00",28.669,"Working","OW390"
"2024-01-23 13:00",28.67,"Working","OW390"
"2024-01-23 14:00",28.668,"Working","OW390"
"2024-01-23 15:00",28.669,"Working","OW390"
"2024-01-23 16:00",28.671,"Working","OW390"
"2024-01-23 17:00",28.673,"Working","OW390"
"2024-01-23 18:00",28.677,"Working","OW390"
"2024-01-23 19:00",28.681,"Working","OW390"
"2024-01-23 20:00",28.685,"Working","OW390"
"2024-01-23 21:00",28.688,"Working","OW390"
"2024-01-23 22:00",28.688,"Working","OW390"
"2024-01-23 23:00",28.689,"Working","OW390"
"2024-01-24 00:00",28.684,"Working","OW390"
"2024-01-24 01:00",28.678,"Working","OW390"
"2024-01-24 02:00",28.672,"Working","OW390"
"2024-01-24 03:00",28.665,"Working","OW390"
"2024-01-24 04:00",28.655,"Working","OW390"
"2024-01-24 05:00",28.645,"Working","OW390"
"2024-01-24 06:00",28.638,"Working","OW390"
"2024-01-24 07:00",28.635,"Working","OW390"
"2024-01-24 08:00",28.631,"Working","OW390"
"2024-01-24 09:00",28.632,"Working","OW390"
"2024-01-24 10:00",28.634,"Working","OW390"
"2024-01-24 11:00",28.637,"Working","OW390"
"2024-01-24 12:00",28.636,"Working","OW390"
"2024-01-24 13:00",28.637,"Working","OW390"
"2024-01-24 14:00",28.636,"Working","OW390"
"2024-01-24 15:00",28.635,"Working","OW390"
"2024-01-24 16:00",28.636,"Working","OW390"
"2024-01-24 17:00",28.635,"Working","OW390"
"2024-01-24 18:00",28.639,"Working","OW390"
"2024-01-24 19:00",28.643,"Working","OW390"
"2024-01-24 20:00",28.65,"Working","OW390"
"2024-01-24 21:00",28.657,"Working","OW390"
"2024-01-24 22:00",28.664,"Working","OW390"
"2024-01-24 23:00",28.67,"Working","OW390"
"2024-01-25 00:00",28.674,"Working","OW390"
"2024-01-25 01:00",28.675,"Working","OW390"
"2024-01-25 02:00",28.675,"Working","OW390"
"2024-01-25 03:00",28.674,"Working","OW390"
"2024-01-25 04:00",28.672,"Working","OW390"
"2024-01-25 05:00",28.67,"Working","OW390"
"2024-01-25 06:00",28.671,"Working","OW390"
"2024-01-25 07:00",28.672,"Working","OW390"
"2024-01-25 08:00",28.675,"Working","OW390"
"2024-01-25 09:00",28.682,"Working","OW390"
"2024-01-25 10:00",28.69,"Working","OW390"
"2024-01-25 11:00",28.696,"Working","OW390"
"2024-01-25 12:00",28.701,"Working","OW390"
"2024-01-25 13:00",28.703,"Working","OW390"
"2024-01-25 14:00",28.702,"Working","OW390"
"2024-01-25 15:00",28.703,"Working","OW390"
"2024-01-25 16:00",28.704,"Working","OW390"
"2024-01-25 17:00",28.705,"Working","OW390"
"2024-01-25 18:00",28.708,"Working","OW390"
"2024-01-25 19:00",28.712,"Working","OW390"
"2024-01-25 20:00",28.716,"Working","OW390"
"2024-01-25 21:00",28.723,"Working","OW390"
"2024-01-25 22:00",28.73,"Working","OW390"
"2024-01-25 23:00",28.735,"Working","OW390"
"2024-01-26 00:00",28.738,"Working","OW390"
"2024-01-26 01:00",28.738,"Working","OW390"
"2024-01-26 02:00",28.737,"Working","OW390"
"2024-01-26 03:00",28.735,"Working","OW390"
"2024-01-26 04:00",28.731,"Working","OW390"
"2024-01-26 05:00",28.725,"Working","OW390"
"2024-01-26 06:00",28.723,"Working","OW390"
"2024-01-26 07:00",28.719,"Working","OW390"
"2024-01-26 08:00",28.719,"Working","OW390"
"2024-01-26 09:00",28.72,"Working","OW390"
"2024-01-26 10:00",28.722,"Working","OW390"
"2024-01-26 11:00",28.725,"Working","OW390"
"2024-01-26 12:00",28.722,"Working","OW390"
"2024-01-26 13:00",28.72,"Working","OW390"
"2024-01-26 14:00",28.715,"Working","OW390"
"2024-01-26 15:00",28.71,"Working","OW390"
"2024-01-26 16:00",28.704,"Working","OW390"
"2024-01-26 17:00",28.698,"Working","OW390"
"2024-01-26 18:00",28.697,"Working","OW390"
"2024-01-26 19:00",28.698,"Working","OW390"
"2024-01-26 20:00",28.701,"Working","OW390"
"2024-01-26 21:00",28.706,"Working","OW390"
"2024-01-26 22:00",28.712,"Working","OW390"
"2024-01-26 23:00",28.718,"Working","OW390"
"2024-01-27 00:00",28.721,"Working","OW390"
"2024-01-27 01:00",28.721,"Working","OW390"
"2024-01-27 02:00",28.72,"Working","OW390"
"2024-01-27 03:00",28.718,"Working","OW390"
"2024-01-27 04:00",28.712,"Working","OW390"
"2024-01-27 05:00",28.707,"Working","OW390"
"2024-01-27 06:00",28.702,"Working","OW390"
"2024-01-27 07:00",28.698,"Working","OW390"
"2024-01-27 08:00",28.696,"Working","OW390"
"2024-01-27 09:00",28.695,"Working","OW390"
"2024-01-27 10:00",28.696,"Working","OW390"
"2024-01-27 11:00",28.698,"Working","OW390"
"2024-01-27 12:00",28.698,"Working","OW390"
"2024-01-27 13:00",28.698,"Working","OW390"
"2024-01-27 14:00",28.698,"Working","OW390"
"2024-01-27 15:00",28.695,"Working","OW390"
"2024-01-27 16:00",28.693,"Working","OW390"
"2024-01-27 17:00",28.691,"Working","OW390"
"2024-01-27 18:00",28.69,"Working","OW390"
"2024-01-27 19:00",28.692,"Working","OW390"
"2024-01-27 20:00",28.693,"Working","OW390"
"2024-01-27 21:00",28.696,"Working","OW390"
"2024-01-27 22:00",28.696,"Working","OW390"
"2024-01-27 23:00",28.704,"Working","OW390"
"2024-01-28 00:00",28.708,"Working","OW390"
"2024-01-28 01:00",28.71,"Working","OW390"
"2024-01-28 02:00",28.711,"Working","OW390"
"2024-01-28 03:00",28.711,"Working","OW390"
"2024-01-28 04:00",28.709,"Working","OW390"
"2024-01-28 05:00",28.704,"Working","OW390"
"2024-01-28 06:00",28.702,"Working","OW390"
"2024-01-28 07:00",28.705,"Working","OW390"
"2024-01-28 08:00",28.707,"Working","OW390"
"2024-01-28 09:00",28.712,"Working","OW390"
"2024-01-28 10:00",28.714,"Working","OW390"
"2024-01-28 11:00",28.722,"Working","OW390"
"2024-01-28 12:00",28.726,"Working","OW390"
"2024-01-28 13:00",28.727,"Working","OW390"
"2024-01-28 14:00",28.727,"Working","OW390"
"2024-01-28 15:00",28.724,"Working","OW390"
"2024-01-28 16:00",28.719,"Working","OW390"
"2024-01-28 17:00",28.715,"Working","OW390"
"2024-01-28 18:00",28.71,"Working","OW390"
"2024-01-28 19:00",28.705,"Working","OW390"
"2024-01-28 20:00",28.707,"Working","OW390"
"2024-01-28 21:00",28.704,"Working","OW390"
"2024-01-28 22:00",28.709,"Working","OW390"
"2024-01-28 23:00",28.712,"Working","OW390"
"2024-01-29 00:00",28.712,"Working","OW390"
"2024-01-29 01:00",28.712,"Working","OW390"
"2024-01-29 02:00",28.713,"Working","OW390"
"2024-01-29 03:00",28.713,"Working","OW390"
"2024-01-29 04:00",28.713,"Working","OW390"
"2024-01-29 05:00",28.708,"Working","OW390"
"2024-01-29 06:00",28.702,"Working","OW390"
"2024-01-29 07:00",28.698,"Working","OW390"
"2024-01-29 08:00",28.697,"Working","OW390"
"2024-01-29 09:00",28.696,"Working","OW390"
"2024-01-29 10:00",28.696,"Working","OW390"
"2024-01-29 11:00",28.696,"Working","OW390"
"2024-01-29 12:00",28.694,"Working","OW390"
"2024-01-29 13:00",28.691,"Working","OW390"
"2024-01-29 14:00",28.685,"Working","OW390"
"2024-01-29 15:00",28.681,"Working","OW390"
"2024-01-29 16:00",28.677,"Working","OW390"
"2024-01-29 17:00",28.669,"Working","OW390"
"2024-01-29 18:00",28.665,"Working","OW390"
"2024-01-29 19:00",28.662,"Working","OW390"
"2024-01-29 20:00",28.661,"Working","OW390"
"2024-01-29 21:00",28.662,"Working","OW390"
"2024-01-29 22:00",28.671,"Working","OW390"
"2024-01-29 23:00",28.674,"Working","OW390"
"2024-01-30 00:00",28.683,"Working","OW390"
"2024-01-30 01:00",28.689,"Working","OW390"
"2024-01-30 02:00",28.695,"Working","OW390"
"2024-01-30 03:00",28.698,"Working","OW390"
"2024-01-30 04:00",28.7,"Working","OW390"
"2024-01-30 05:00",28.699,"Working","OW390"
"2024-01-30 06:00",28.7,"Working","OW390"
"2024-01-30 07:00",28.695,"Working","OW390"
"2024-01-30 08:00",28.693,"Working","OW390"
"2024-01-30 09:00",28.692,"Working","OW390"
"2024-01-30 10:00",28.69,"Working","OW390"
"2024-01-30 11:00",28.689,"Working","OW390"
"2024-01-30 12:00",28.686,"Working","OW390"
"2024-01-30 13:00",28.684,"Working","OW390"
"2024-01-30 14:00",28.679,"Working","OW390"
"2024-01-30 15:00",28.675,"Working","OW390"
"2024-01-30 16:00",28.667,"Working","OW390"
"2024-01-30 17:00",28.657,"Working","OW390"
"2024-01-30 18:00",28.648,"Working","OW390"
"2024-01-30 19:00",28.637,"Working","OW390"
"2024-01-30 20:00",28.63,"Working","OW390"
"2024-01-30 21:00",28.624,"Working","OW390"
"2024-01-30 22:00",28.618,"Working","OW390"
"2024-01-30 23:00",28.614,"Working","OW390"
"2024-01-31 00:00",28.613,"Working","OW390"
"2024-01-31 01:00",28.611,"Working","OW390"
"2024-01-31 02:00",28.608,"Working","OW390"
"2024-01-31 03:00",28.605,"Working","OW390"
"2024-01-31 04:00",28.6,"Working","OW390"
"2024-01-31 05:00",28.594,"Working","OW390"
"2024-01-31 06:00",28.589,"Working","OW390"
"2024-01-31 07:00",28.584,"Working","OW390"
"2024-01-31 08:00",28.582,"Working","OW390"
"2024-01-31 09:00",28.581,"Working","OW390"
"2024-01-31 10:00",28.581,"Working","OW390"
"2024-01-31 11:00",28.581,"Working","OW390"
"2024-01-31 12:00",28.582,"Working","OW390"
"2024-01-31 13:00",28.582,"Working","OW390"
"2024-01-31 14:00",28.582,"Working","OW390"
"2024-01-31 15:00",28.582,"Working","OW390"
"2024-01-31 16:00",28.58,"Working","OW390"
"2024-01-31 17:00",28.577,"Working","OW390"
"2024-01-31 18:00",28.574,"Working","OW390"
"2024-01-31 19:00",28.572,"Working","OW390"
"2024-01-31 20:00",28.571,"Working","OW390"
"2024-01-31 21:00",28.569,"Working","OW390"
"2024-01-31 22:00",28.57,"Working","OW390"
"2024-01-31 23:00",28.569,"Working","OW390"
"2024-02-01 00:00",28.571,"Working","OW390"
"2024-02-01 01:00",28.573,"Working","OW390"
"2024-02-01 02:00",28.573,"Working","OW390"
"2024-02-01 03:00",28.575,"Working","OW390"
"2024-02-01 04:00",28.573,"Working","OW390"
"2024-02-01 05:00",28.572,"Working","OW390"
"2024-02-01 06:00",28.571,"Working","OW390"
"2024-02-01 07:00",28.569,"Working","OW390"
"2024-02-01 08:00",28.568,"Working","OW390"
"2024-02-01 09:00",28.568,"Working","OW390"
"2024-02-01 10:00",28.569,"Working","OW390"
"2024-02-01 11:00",28.571,"Working","OW390"
"2024-02-01 12:00",28.571,"Working","OW390"
"2024-02-01 13:00",28.572,"Working","OW390"
"2024-02-01 14:00",28.574,"Working","OW390"
"2024-02-01 15:00",28.576,"Working","OW390"
"2024-02-01 16:00",28.577,"Working","OW390"
"2024-02-01 17:00",28.577,"Working","OW390"
"2024-02-01 18:00",28.577,"Working","OW390"
"2024-02-01 19:00",28.578,"Working","OW390"
"2024-02-01 20:00",28.578,"Working","OW390"
"2024-02-01 21:00",28.578,"Working","OW390"
"2024-02-01 22:00",28.578,"Working","OW390"
"2024-02-01 23:00",28.579,"Working","OW390"
"2024-02-02 00:00",28.581,"Working","OW390"
"2024-02-02 01:00",28.582,"Working","OW390"
"2024-02-02 02:00",28.585,"Working","OW390"
"2024-02-02 03:00",28.588,"Working","OW390"
"2024-02-02 04:00",28.59,"Working","OW390"
"2024-02-02 05:00",28.592,"Working","OW390"
"2024-02-02 06:00",28.593,"Working","OW390"
"2024-02-02 07:00",28.595,"Working","OW390"
"2024-02-02 08:00",28.598,"Working","OW390"
"2024-02-02 09:00",28.6,"Working","OW390"
"2024-02-02 10:00",28.605,"Working","OW390"
"2024-02-02 11:00",28.611,"Working","OW390"
"2024-02-02 12:00",28.615,"Working","OW390"
"2024-02-02 13:00",28.618,"Working","OW390"
"2024-02-02 14:00",28.623,"Working","OW390"
"2024-02-02 15:00",28.629,"Working","OW390"
"2024-02-02 16:00",28.635,"Working","OW390"
"2024-02-02 17:00",28.64,"Working","OW390"
"2024-02-02 18:00",28.645,"Working","OW390"
"2024-02-02 19:00",28.648,"Working","OW390"
"2024-02-02 20:00",28.651,"Working","OW390"
"2024-02-02 21:00",28.654,"Working","OW390"
"2024-02-02 22:00",28.656,"Working","OW390"
"2024-02-02 23:00",28.659,"Working","OW390"
"2024-02-03 00:00",28.662,"Working","OW390"
"2024-02-03 01:00",28.664,"Working","OW390"
"2024-02-03 02:00",28.667,"Working","OW390"
"2024-02-03 03:00",28.671,"Working","OW390"
"2024-02-03 04:00",28.674,"Working","OW390"
"2024-02-03 05:00",28.677,"Working","OW390"
"2024-02-03 06:00",28.681,"Working","OW390"
"2024-02-03 07:00",28.684,"Working","OW390"
"2024-02-03 08:00",28.687,"Working","OW390"
"2024-02-03 09:00",28.691,"Working","OW390"
"2024-02-03 10:00",28.693,"Working","OW390"
"2024-02-03 11:00",28.697,"Working","OW390"
"2024-02-03 12:00",28.699,"Working","OW390"
"2024-02-03 13:00",28.701,"Working","OW390"
"2024-02-03 14:00",28.704,"Working","OW390"
"2024-02-03 15:00",28.707,"Working","OW390"
"2024-02-03 16:00",28.711,"Working","OW390"
"2024-02-03 17:00",28.713,"Working","OW390"
"2024-02-03 18:00",28.716,"Working","OW390"
"2024-02-03 19:00",28.717,"Working","OW390"
"2024-02-03 20:00",28.716,"Working","OW390"
"2024-02-03 21:00",28.716,"Working","OW390"
"2024-02-03 22:00",28.716,"Working","OW390"
"2024-02-03 23:00",28.715,"Working","OW390"
"2024-02-04 00:00",28.712,"Working","OW390"
"2024-02-04 01:00",28.711,"Working","OW390"
"2024-02-04 02:00",28.71,"Working","OW390"
"2024-02-04 03:00",28.71,"Working","OW390"
"2024-02-04 04:00",28.707,"Working","OW390"
"2024-02-04 05:00",28.706,"Working","OW390"
"2024-02-04 06:00",28.703,"Working","OW390"
"2024-02-04 07:00",28.702,"Working","OW390"
"2024-02-04 08:00",28.7,"Working","OW390"
"2024-02-04 09:00",28.697,"Working","OW390"
"2024-02-04 10:00",28.695,"Working","OW390"
"2024-02-04 11:00",28.692,"Working","OW390"
"2024-02-04 12:00",28.688,"Working","OW390"
"2024-02-04 13:00",28.684,"Working","OW390"
"2024-02-04 14:00",28.68,"Working","OW390"
"2024-02-04 15:00",28.677,"Working","OW390"
"2024-02-04 16:00",28.674,"Working","OW390"
"2024-02-04 17:00",28.674,"Working","OW390"
"2024-02-04 18:00",28.672,"Working","OW390"
"2024-02-04 19:00",28.669,"Working","OW390"
"2024-02-04 20:00",28.666,"Working","OW390"
"2024-02-04 21:00",28.663,"Working","OW390"
"2024-02-04 22:00",28.658,"Working","OW390"
"2024-02-04 23:00",28.653,"Working","OW390"
"2024-02-05 00:00",28.648,"Working","OW390"
"2024-02-05 01:00",28.643,"Working","OW390"
"2024-02-05 02:00",28.638,"Working","OW390"
"2024-02-05 03:00",28.633,"Working","OW390"
"2024-02-05 04:00",28.63,"Working","OW390"
"2024-02-05 05:00",28.628,"Working","OW390"
"2024-02-05 06:00",28.627,"Working","OW390"
"2024-02-05 07:00",28.628,"Working","OW390"
"2024-02-05 08:00",28.629,"Working","OW390"
"2024-02-05 09:00",28.629,"Working","OW390"
"2024-02-05 10:00",28.629,"Working","OW390"
"2024-02-05 11:00",28.63,"Working","OW390"
"2024-02-05 12:00",28.629,"Working","OW390"
"2024-02-05 13:00",28.627,"Working","OW390"
"2024-02-05 14:00",28.628,"Working","OW390"
"2024-02-05 15:00",28.631,"Working","OW390"
"2024-02-05 16:00",28.635,"Working","OW390"
"2024-02-05 17:00",28.639,"Working","OW390"
"2024-02-05 18:00",28.643,"Working","OW390"
"2024-02-05 19:00",28.648,"Working","OW390"
"2024-02-05 20:00",28.652,"Working","OW390"
"2024-02-05 21:00",28.655,"Working","OW390"
"2024-02-05 22:00",28.656,"Working","OW390"
"2024-02-05 23:00",28.656,"Working","OW390"
"2024-02-06 00:00",28.655,"Working","OW390"
"2024-02-06 01:00",28.654,"Working","OW390"
"2024-02-06 02:00",28.653,"Working","OW390"
"2024-02-06 03:00",28.651,"Working","OW390"
"2024-02-06 04:00",28.649,"Working","OW390"
"2024-02-06 05:00",28.65,"Working","OW390"
"2024-02-06 06:00",28.65,"Working","OW390"
"2024-02-06 07:00",28.651,"Working","OW390"
"2024-02-06 08:00",28.655,"Working","OW390"
"2024-02-06 09:00",28.655,"Working","OW390"
"2024-02-06 10:00",28.656,"Working","OW390"
"2024-02-06 11:00",28.656,"Working","OW390"
"2024-02-06 12:00",28.653,"Working","OW390"
"2024-02-06 13:00",28.649,"Working","OW390"
"2024-02-06 14:00",28.646,"Working","OW390"
"2024-02-06 15:00",28.645,"Working","OW390"
"2024-02-06 16:00",28.643,"Working","OW390"
"2024-02-06 17:00",28.645,"Working","OW390"
"2024-02-06 18:00",28.647,"Working","OW390"
"2024-02-06 19:00",28.65,"Working","OW390"
"2024-02-06 20:00",28.651,"Working","OW390"
"2024-02-06 21:00",28.653,"Working","OW390"
"2024-02-06 22:00",28.654,"Working","OW390"
"2024-02-06 23:00",28.652,"Working","OW390"
"2024-02-07 00:00",28.649,"Working","OW390"
"2024-02-07 01:00",28.646,"Working","OW390"
"2024-02-07 02:00",28.643,"Working","OW390"
"2024-02-07 03:00",28.64,"Working","OW390"
"2024-02-07 04:00",28.637,"Working","OW390"
"2024-02-07 05:00",28.637,"Working","OW390"
"2024-02-07 06:00",28.638,"Working","OW390"
"2024-02-07 07:00",28.64,"Working","OW390"
"2024-02-07 08:00",28.644,"Working","OW390"
"2024-02-07 09:00",28.649,"Working","OW390"
"2024-02-07 10:00",28.652,"Working","OW390"
"2024-02-07 11:00",28.654,"Working","OW390"
"2024-02-07 12:00",28.654,"Working","OW390"
"2024-02-07 13:00",28.652,"Working","OW390"
"2024-02-07 14:00",28.65,"Working","OW390"
"2024-02-07 15:00",28.65,"Working","OW390"
"2024-02-07 16:00",28.652,"Working","OW390"
"2024-02-07 17:00",28.655,"Working","OW390"
"2024-02-07 18:00",28.66,"Working","OW390"
"2024-02-07 19:00",28.666,"Working","OW390"
"2024-02-07 20:00",28.672,"Working","OW390"
"2024-02-07 21:00",28.677,"Working","OW390"
"2024-02-07 22:00",28.682,"Working","OW390"
"2024-02-07 23:00",28.685,"Working","OW390"
"2024-02-08 00:00",28.688,"Working","OW390"
"2024-02-08 01:00",28.689,"Working","OW390"
"2024-02-08 02:00",28.686,"Working","OW390"
"2024-02-08 03:00",28.683,"Working","OW390"
"2024-02-08 04:00",28.682,"Working","OW390"
"2024-02-08 05:00",28.681,"Working","OW390"
"2024-02-08 06:00",28.682,"Working","OW390"
"2024-02-08 07:00",28.684,"Working","OW390"
"2024-02-08 08:00",28.689,"Working","OW390"
"2024-02-08 09:00",28.694,"Working","OW390"
"2024-02-08 10:00",28.698,"Working","OW390"
"2024-02-08 11:00",28.7,"Working","OW390"
"2024-02-08 12:00",28.7,"Working","OW390"
"2024-02-08 13:00",28.699,"Working","OW390"
"2024-02-08 14:00",28.698,"Working","OW390"
"2024-02-08 15:00",28.699,"Working","OW390"
"2024-02-08 16:00",28.699,"Working","OW390"
"2024-02-08 17:00",28.701,"Working","OW390"
"2024-02-08 18:00",28.703,"Working","OW390"
"2024-02-08 19:00",28.709,"Working","OW390"
"2024-02-08 20:00",28.713,"Working","OW390"
"2024-02-08 21:00",28.717,"Working","OW390"
"2024-02-08 22:00",28.722,"Working","OW390"
"2024-02-08 23:00",28.726,"Working","OW390"
"2024-02-09 00:00",28.727,"Working","OW390"
"2024-02-09 01:00",28.728,"Working","OW390"
"2024-02-09 02:00",28.727,"Working","OW390"
"2024-02-09 03:00",28.725,"Working","OW390"
"2024-02-09 04:00",28.722,"Working","OW390"
"2024-02-09 05:00",28.72,"Working","OW390"
"2024-02-09 06:00",28.72,"Working","OW390"
"2024-02-09 07:00",28.723,"Working","OW390"
"2024-02-09 08:00",28.727,"Working","OW390"
"2024-02-09 09:00",28.732,"Working","OW390"
"2024-02-09 10:00",28.738,"Working","OW390"
"2024-02-09 11:00",28.744,"Working","OW390"
"2024-02-09 12:00",28.747,"Working","OW390"
"2024-02-09 13:00",28.748,"Working","OW390"
"2024-02-09 14:00",28.746,"Working","OW390"
"2024-02-09 15:00",28.743,"Working","OW390"
"2024-02-09 16:00",28.742,"Working","OW390"
"2024-02-09 17:00",28.742,"Working","OW390"
"2024-02-09 18:00",28.743,"Working","OW390"
"2024-02-09 19:00",28.748,"Working","OW390"
"2024-02-09 20:00",28.753,"Working","OW390"
"2024-02-09 21:00",28.758,"Working","OW390"
"2024-02-09 22:00",28.764,"Working","OW390"
"2024-02-09 23:00",28.769,"Working","OW390"
"2024-02-10 00:00",28.771,"Working","OW390"
"2024-02-10 01:00",28.772,"Working","OW390"
"2024-02-10 02:00",28.77,"Working","OW390"
"2024-02-10 03:00",28.766,"Working","OW390"
"2024-02-10 04:00",28.761,"Working","OW390"
"2024-02-10 05:00",28.757,"Working","OW390"
"2024-02-10 06:00",28.753,"Working","OW390"
"2024-02-10 07:00",28.751,"Working","OW390"
"2024-02-10 08:00",28.751,"Working","OW390"
"2024-02-10 09:00",28.753,"Working","OW390"
"2024-02-10 10:00",28.756,"Working","OW390"
"2024-02-10 11:00",28.759,"Working","OW390"
"2024-02-10 12:00",28.761,"Working","OW390"
"2024-02-10 13:00",28.759,"Working","OW390"
"2024-02-10 14:00",28.756,"Working","OW390"
"2024-02-10 15:00",28.751,"Working","OW390"
"2024-02-10 16:00",28.747,"Working","OW390"
"2024-02-10 17:00",28.742,"Working","OW390"
"2024-02-10 18:00",28.74,"Working","OW390"
"2024-02-10 19:00",28.738,"Working","OW390"
"2024-02-10 20:00",28.738,"Working","OW390"
"2024-02-10 21:00",28.739,"Working","OW390"
"2024-02-10 22:00",28.742,"Working","OW390"
"2024-02-10 23:00",28.743,"Working","OW390"
"2024-02-11 00:00",28.742,"Working","OW390"
"2024-02-11 01:00",28.741,"Working","OW390"
"2024-02-11 02:00",28.737,"Working","OW390"
"2024-02-11 03:00",28.729,"Working","OW390"
"2024-02-11 04:00",28.72,"Working","OW390"
"2024-02-11 05:00",28.713,"Working","OW390"
"2024-02-11 06:00",28.706,"Working","OW390"
"2024-02-11 07:00",28.701,"Working","OW390"
"2024-02-11 08:00",28.7,"Working","OW390"
"2024-02-11 09:00",28.7,"Working","OW390"
"2024-02-11 10:00",28.699,"Working","OW390"
"2024-02-11 11:00",28.702,"Working","OW390"
"2024-02-11 12:00",28.703,"Working","OW390"
"2024-02-11 13:00",28.703,"Working","OW390"
"2024-02-11 14:00",28.702,"Working","OW390"
"2024-02-11 15:00",28.7,"Working","OW390"
"2024-02-11 16:00",28.697,"Working","OW390"
"2024-02-11 17:00",28.694,"Working","OW390"
"2024-02-11 18:00",28.692,"Working","OW390"
"2024-02-11 19:00",28.691,"Working","OW390"
"2024-02-11 20:00",28.691,"Working","OW390"
"2024-02-11 21:00",28.694,"Working","OW390"
"2024-02-11 22:00",28.698,"Working","OW390"
"2024-02-11 23:00",28.704,"Working","OW390"
"2024-02-12 00:00",28.711,"Working","OW390"
"2024-02-12 01:00",28.715,"Working","OW390"
"2024-02-12 02:00",28.717,"Working","OW390"
"2024-02-12 03:00",28.718,"Working","OW390"
"2024-02-12 04:00",28.717,"Working","OW390"
"2024-02-12 05:00",28.714,"Working","OW390"
"2024-02-12 06:00",28.711,"Working","OW390"
"2024-02-12 07:00",28.71,"Working","OW390"
"2024-02-12 08:00",28.713,"Working","OW390"
"2024-02-12 09:00",28.719,"Working","OW390"
"2024-02-12 10:00",28.726,"Working","OW390"
"2024-02-12 11:00",28.734,"Working","OW390"
"2024-02-12 12:00",28.738,"Working","OW390"
"2024-02-12 13:00",28.74,"Working","OW390"
"2024-02-12 14:00",28.741,"Working","OW390"
"2024-02-12 15:00",28.74,"Working","OW390"
"2024-02-12 16:00",28.738,"Working","OW390"
"2024-02-12 17:00",28.735,"Working","OW390"
"2024-02-12 18:00",28.733,"Working","OW390"
"2024-02-12 19:00",28.731,"Working","OW390"
"2024-02-12 20:00",28.729,"Working","OW390"
"2024-02-12 21:00",28.729,"Working","OW390"
"2024-02-12 22:00",28.732,"Working","OW390"
"2024-02-12 23:00",28.737,"Working","OW390"
"2024-02-13 00:00",28.742,"Working","OW390"
"2024-02-13 01:00",28.743,"Working","OW390"
"2024-02-13 02:00",28.744,"Working","OW390"
"2024-02-13 03:00",28.743,"Working","OW390"
"2024-02-13 04:00",28.741,"Working","OW390"
"2024-02-13 05:00",28.737,"Working","OW390"
"2024-02-13 06:00",28.733,"Working","OW390"
"2024-02-13 07:00",28.728,"Working","OW390"
"2024-02-13 08:00",28.727,"Working","OW390"
"2024-02-13 09:00",28.726,"Working","OW390"
"2024-02-13 10:00",28.729,"Working","OW390"
"2024-02-13 11:00",28.734,"Working","OW390"
"2024-02-13 12:00",28.735,"Working","OW390"
"2024-02-13 13:00",28.736,"Working","OW390"
"2024-02-13 14:00",28.735,"Working","OW390"
"2024-02-13 15:00",28.73,"Working","OW390"
"2024-02-13 16:00",28.728,"Working","OW390"
"2024-02-13 17:00",28.724,"Working","OW390"
"2024-02-13 18:00",28.721,"Working","OW390"
"2024-02-13 19:00",28.718,"Working","OW390"